GW5165 Weather Reports


time (UTC)temp
C
wind
direction
speed
KPH
gust
KPH
rain 1hr
cm
rain 24hr
cm
rain mn
cm
humidity
%
barometer
mb
20260906181248 21 104 4.8 6.4 0.00 0.00 0.00 94 1018.9
20260906180742 21 88 9.7 11.3 0.00 0.00 0.00 93 1018.6
20260906180237 21 150 9.7 11.3 0.00 0.00 0.00 93 1018.6
20260906175735 21 56 6.4 9.7 0.00 0.00 0.00 93 1018.8
20260906175231 21 122 4.8 6.4 0.00 0.00 0.00 93 1018.7
20260906174730 21 156 9.7 12.9 0.00 0.00 0.00 93 1018.7
20260906174230 21 77 3.2 6.4 0.00 0.00 0.00 93 1018.9
20260906173725 21 88 3.2 4.8 0.00 0.00 0.00 93 1019.0
20260906173221 21 140 4.8 6.4 0.00 0.00 0.00 93 1019.3
20260906172720 20 181 3.2 9.7 0.00 0.00 0.00 94 1019.3
20260906172215 20 115 6.4 9.7 0.00 0.00 0.00 94 1019.3
20260906171710 20 131 6.4 6.4 0.00 0.00 0.00 94 1019.6
20260906171205 20 153 3.2 6.4 0.00 0.00 0.00 94 1019.5
20260906170701 20 107 9.7 12.9 0.00 0.00 0.00 94 1019.5
20260906170201 20 164 6.4 9.7 0.00 0.00 0.00 94 1019.6
20260906165657 20 38 4.8 6.4 0.00 0.00 0.00 94 1019.7
20260906165158 20 119 8.0 11.3 0.00 0.00 0.00 94 1019.7
20260906164656 20 115 4.8 4.8 0.00 0.00 0.00 94 1019.6
20260906164152 20 182 4.8 9.7 0.00 0.00 0.00 94 1019.6
20260906163648 20 100 8.0 11.3 0.00 0.00 0.00 94 1019.3
20260906163144 20 129 9.7 12.9 0.00 0.00 0.00 94 1019.3
20260906162641 20 133 9.7 12.9 0.00 0.00 0.00 94 1019.5
20260906162140 20 133 8.0 11.3 0.00 0.00 0.00 94 1019.5
20260906161635 20 130 3.2 3.2 0.00 0.00 0.00 95 1019.6
20260906161134 20 123 14.5 16.1 0.00 0.00 0.00 94 1019.3
20260906160633 20 56 4.8 6.4 0.00 0.00 0.00 95 1019.5
20260906160133 20 55 8.0 11.3 0.00 0.00 0.00 95 1019.5
20260906155630 20 137 6.4 11.3 0.00 0.00 0.00 95 1019.2
20260906155126 20 140 4.8 11.3 0.00 0.00 0.00 95 1019.0
20260906154621 20 170 12.9 16.1 0.00 0.00 0.00 95 1019.4
20260906154120 20 77 6.4 11.3 0.00 0.00 0.00 95 1019.4
20260906153619 20 124 9.7 11.3 0.00 0.00 0.00 95 1019.2
20260906153114 20 158 8.0 11.3 0.00 0.00 0.00 95 1019.2
20260906152610 20 136 9.7 12.9 0.00 0.00 0.00 95 1019.0
20260906152109 20 142 3.2 4.8 0.00 0.00 0.00 95 1019.2
20260906151604 20 210 3.2 4.8 0.00 0.00 0.00 95 1019.1
20260906151059 20 156 6.4 11.3 0.00 0.00 0.00 95 1019.0
20260906150554 20 136 4.8 4.8 0.00 0.00 0.00 95 1019.0
20260906150049 20 170 9.7 12.9 0.00 0.00 0.00 95 1019.1
20260906145548 20 133 12.9 16.1 0.00 0.00 0.00 95 1019.2
20260906145043 20 169 3.2 6.4 0.00 0.00 0.00 95 1019.1
20260906144537 20 129 3.2 4.8 0.00 0.00 0.00 95 1019.0
20260906144033 20 153 9.7 12.9 0.00 0.00 0.00 95 1018.8
20260906143528 20 125 6.4 6.4 0.00 0.00 0.00 95 1019.0
20260906143025 20 150 9.7 11.3 0.00 0.00 0.00 95 1019.0
20260906142524 20 207 8.0 14.5 0.00 0.00 0.00 95 1019.2
20260906142020 20 34 9.7 12.9 0.00 0.00 0.00 94 1019.3
20260906141520 20 153 9.7 12.9 0.00 0.00 0.00 95 1019.4
20260906141015 20 126 12.9 20.9 0.00 0.00 0.00 94 1019.3
20260906140514 20 114 6.4 9.7 0.00 0.00 0.00 94 1019.3
20260906140014 20 130 11.3 14.5 0.00 0.00 0.00 94 1019.2
20260906135511 20 126 3.2 4.8 0.00 0.00 0.00 94 1019.2
20260906135007 20 134 9.7 12.9 0.00 0.00 0.00 94 1019.2
20260906134502 20 149 8.0 9.7 0.00 0.00 0.00 94 1019.1
20260906133956 20 71 4.8 4.8 0.00 0.00 0.00 94 1019.1
20260906133452 20 141 4.8 11.3 0.00 0.00 0.00 94 1019.1
20260906132948 20 96 8.0 9.7 0.00 0.00 0.00 95 1019.0
20260906132443 20 128 9.7 14.5 0.00 0.00 0.00 95 1019.1
20260906131938 20 148 9.7 16.1 0.00 0.00 0.00 95 1019.1
20260906131433 20 195 11.3 14.5 0.00 0.00 0.00 95 1019.0
20260906130929 20 151 9.7 11.3 0.00 0.00 0.00 95 1019.0
20260906130428 20 144 4.8 6.4 0.00 0.00 0.00 95 1019.0
20260906125923 20 144 6.4 12.9 0.00 0.00 0.00 95 1019.0
20260906125420 20 116 8.0 11.3 0.00 0.00 0.00 95 1018.9
20260906124920 20 138 6.4 11.3 0.00 0.00 0.00 95 1018.7
20260906124416 20 84 9.7 14.5 0.00 0.00 0.00 95 1018.6
20260906123916 20 155 8.0 11.3 0.00 0.00 0.00 95 1018.6
20260906123410 20 66 6.4 11.3 0.00 0.00 0.00 95 1018.6
20260906122910 20 148 6.4 9.7 0.00 0.00 0.00 95 1018.5
20260906122404 20 102 8.0 11.3 0.00 0.00 0.00 95 1018.5
20260906121901 20 112 6.4 9.7 0.00 0.00 0.00 95 1018.5
20260906121357 20 146 1.6 3.2 0.00 0.00 0.00 95 1018.5
20260906120853 20 144 8.0 9.7 0.00 0.00 0.00 95 1018.3
20260906120349 20 153 3.2 6.4 0.00 0.00 0.00 95 1018.4
20260906115844 20 170 4.8 6.4 0.00 0.00 0.00 95 1018.3
20260906115340 20 164 4.8 6.4 0.00 0.00 0.00 95 1018.3
20260906114839 20 181 6.4 6.4 0.00 0.00 0.00 95 1018.1
20260906114335 20 159 6.4 9.7 0.00 0.00 0.00 95 1018.3
20260906113830 20 159 4.8 6.4 0.00 0.00 0.00 95 1017.9
20260906113329 20 131 8.0 9.7 0.00 0.00 0.00 95 1017.9
20260906112824 20 171 8.0 9.7 0.00 0.00 0.00 95 1017.6
20260906112321 20 116 4.8 6.4 0.00 0.00 0.00 95 1018.1
20260906111820 20 116 9.7 11.3 0.00 0.00 0.00 95 1017.8
20260906111319 20 152 4.8 6.4 0.00 0.00 0.00 95 1018.1
20260906110814 20 105 8.0 11.3 0.00 0.00 0.00 94 1017.9
20260906110310 20 108 6.4 6.4 0.00 0.00 0.00 94 1018.0
20260906105809 20 105 4.8 9.7 0.00 0.00 0.00 94 1018.0
20260906105306 20 167 6.4 6.4 0.00 0.00 0.00 94 1017.9
20260906104800 20 175 4.8 4.8 0.00 0.00 0.00 94 1018.0
20260906104259 20 112 3.2 4.8 0.00 0.00 0.00 94 1017.8
20260906103757 20 162 6.4 11.3 0.00 0.00 0.00 94 1017.9
20260906103257 20 130 4.8 9.7 0.00 0.00 0.00 93 1018.0
20260906102753 20 117 6.4 11.3 0.00 0.00 0.00 93 1017.9
20260906102251 20 130 4.8 6.4 0.00 0.00 0.00 93 1018.0
20260906101747 20 166 6.4 9.7 0.00 0.00 0.00 93 1018.0
20260906101242 20 146 6.4 9.7 0.00 0.00 0.00 92 1018.0
20260906100737 20 167 4.8 6.4 0.00 0.00 0.00 92 1017.9
20260906100237 20 149 1.6 3.2 0.00 0.00 0.00 92 1017.9
20260906095732 20 75 6.4 6.4 0.00 0.00 0.00 92 1017.9
20260906095222 20 124 3.2 3.2 0.00 0.00 0.00 92 1017.8
20260906094720 20 151 4.8 4.8 0.00 0.00 0.00 92 1017.7
20260906094216 20 109 4.8 4.8 0.00 0.00 0.00 92 1017.8
20260906093712 20 88 3.2 4.8 0.00 0.00 0.00 92 1017.7
20260906093208 21 105 6.4 6.4 0.00 0.00 0.00 92 1017.6
20260906092702 21 130 6.4 11.3 0.00 0.00 0.00 92 1017.5
20260906092201 21 125 6.4 9.7 0.00 0.00 0.00 92 1017.8
20260906091658 21 117 6.4 9.7 0.00 0.00 0.00 92 1017.8
20260906091154 21 82 1.6 3.2 0.00 0.00 0.00 92 1017.5
20260906090650 21 83 3.2 3.2 0.00 0.00 0.00 92 1017.6
20260906090149 21 105 1.6 3.2 0.00 0.00 0.00 92 1017.6
20260906085649 21 135 9.7 12.9 0.00 0.00 0.00 92 1017.6
20260906085148 21 172 3.2 6.4 0.00 0.00 0.00 92 1017.6
20260906084643 21 111 0.0 1.6 0.00 0.00 0.00 92 1017.6
20260906084142 21 110 8.0 11.3 0.00 0.00 0.00 92 1017.2
20260906083637 21 136 4.8 6.4 0.00 0.00 0.00 92 1017.4
20260906083132 21 123 3.2 6.4 0.00 0.00 0.00 92 1017.2
20260906082628 21 91 6.4 11.3 0.00 0.00 0.00 92 1017.3
20260906082123 21 127 6.4 6.4 0.00 0.00 0.00 92 1017.1
20260906081619 21 118 6.4 9.7 0.00 0.00 0.00 92 1017.1
20260906081114 21 105 11.3 14.5 0.00 0.00 0.00 92 1017.2
20260906080611 21 95 4.8 9.7 0.00 0.00 0.00 92 1017.2
20260906080107 21 150 3.2 4.8 0.00 0.00 0.00 92 1017.2
20260906075601 21 136 9.7 11.3 0.00 0.00 0.00 92 1017.3
20260906075101 21 72 4.8 6.4 0.00 0.00 0.00 92 1017.3
20260906074556 21 121 11.3 16.1 0.00 0.00 0.00 92 1017.3
20260906074055 21 141 4.8 4.8 0.00 0.00 0.00 92 1017.4
20260906073550 21 142 8.0 9.7 0.00 0.00 0.00 92 1017.5
20260906073046 21 68 6.4 11.3 0.00 0.00 0.00 92 1017.4
20260906072540 21 115 8.0 11.3 0.00 0.00 0.00 92 1017.3
20260906072037 21 133 12.9 16.1 0.00 0.00 0.00 92 1017.3
20260906071533 21 93 6.4 11.3 0.00 0.00 0.00 92 1017.1
20260906071028 21 72 6.4 14.5 0.00 0.00 0.00 92 1017.4
20260906070524 21 122 8.0 12.9 0.00 0.00 0.00 92 1017.4
20260906070019 21 103 6.4 9.7 0.00 0.00 0.00 93 1017.7
20260906065519 21 119 3.2 4.8 0.00 0.00 0.00 93 1017.6
20260906065015 21 122 9.7 12.9 0.00 0.00 0.00 94 1017.4
20260906064511 21 126 4.8 4.8 0.00 0.00 0.00 94 1017.5
20260906064011 21 81 8.0 11.3 0.00 0.00 0.00 94 1017.5
20260906063506 21 95 8.0 11.3 0.00 0.00 0.00 94 1017.5
20260906063001 21 86 12.9 16.1 0.00 0.00 0.00 94 1017.5
20260906062456 21 96 9.7 12.9 0.00 0.00 0.00 94 1017.4
20260906061951 21 102 8.0 11.3 0.00 0.00 0.00 94 1017.5
20260906061447 21 40 8.0 12.9 0.00 0.00 0.00 94 1017.8
20260906060941 21 118 6.4 9.7 0.00 0.00 0.00 94 1017.6
20260906060438 21 114 8.0 9.7 0.00 0.00 0.00 94 1017.5
20260906055935 22 49 3.2 4.8 0.00 0.00 0.00 94 1017.6
20260906055430 22 163 6.4 9.7 0.00 0.00 0.00 94 1017.8
20260906054925 22 76 4.8 4.8 0.00 0.00 0.00 93 1017.7
20260906054420 22 166 3.2 3.2 0.00 0.00 0.00 93 1017.7
20260906053916 22 87 6.4 9.7 0.00 0.00 0.00 93 1017.7
20260906053412 22 157 3.2 4.8 0.00 0.00 0.00 93 1017.5
20260906052908 22 73 8.0 11.3 0.00 0.00 0.00 93 1017.4
20260906052404 22 90 6.4 6.4 0.00 0.00 0.00 93 1017.5
20260906051900 22 128 3.2 4.8 0.00 0.00 0.00 93 1017.6
20260906051355 22 87 6.4 6.4 0.00 0.00 0.00 93 1017.6
20260906050850 22 133 6.4 9.7 0.00 0.00 0.00 93 1017.5
20260906050345 22 113 4.8 6.4 0.00 0.00 0.00 93 1017.4
20260906045843 22 133 0.0 0.0 0.00 0.00 0.00 93 1017.6
20260906045338 22 83 1.6 3.2 0.00 0.00 0.00 93 1017.2
20260906044834 22 50 3.2 4.8 0.00 0.00 0.00 94 1017.2
20260906044329 22 64 8.0 9.7 0.00 0.00 0.00 95 1017.2
20260906043827 22 112 4.8 6.4 0.00 0.00 0.00 94 1017.4
20260906043320 22 142 0.0 3.2 0.00 0.00 0.00 94 1017.2
20260906042814 22 124 6.4 9.7 0.00 0.00 0.00 95 1017.3
20260906042313 22 46 3.2 3.2 0.00 0.00 0.00 95 1017.4
20260906041809 22 79 8.0 11.3 0.00 0.00 0.00 95 1017.4
20260906041304 22 86 3.2 3.2 0.00 0.00 0.00 95 1017.3
20260906040800 22 86 1.6 3.2 0.00 0.00 0.00 94 1017.4
20260906040255 22 48 4.8 9.7 0.00 0.00 0.00 94 1017.1
20260906035750 22 45 1.6 1.6 0.00 0.00 0.00 94 1017.2
20260906035245 22 60 3.2 4.8 0.00 0.00 0.00 94 1017.2
20260906034740 22 148 3.2 6.4 0.00 0.00 0.00 94 1017.0
20260906034235 22 122 3.2 6.4 0.00 0.00 0.00 94 1017.1
20260906033731 22 93 3.2 3.2 0.00 0.00 0.00 94 1017.2
20260906033230 22 50 4.8 6.4 0.00 0.00 0.00 94 1017.1
20260906032727 22 71 6.4 6.4 0.00 0.00 0.00 94 1017.2
20260906032227 22 102 1.6 3.2 0.00 0.00 0.00 94 1017.2
20260906031722 22 66 4.8 6.4 0.00 0.00 0.00 94 1017.1
20260906031218 22 66 6.4 6.4 0.00 0.00 0.00 94 1017.1
20260906030717 22 90 1.6 4.8 0.00 0.00 0.00 94 1017.2
20260906030213 22 83 3.2 4.8 0.00 0.00 0.00 93 1017.4
20260906025711 22 91 4.8 4.8 0.00 0.00 0.00 93 1017.2
20260906025206 22 68 6.4 9.7 0.00 0.00 0.00 93 1017.3
20260906024700 22 80 1.6 3.2 0.00 0.00 0.00 93 1017.4
20260906024159 22 21 1.6 3.2 0.00 0.00 0.00 92 1017.3
20260906023655 23 153 3.2 4.8 0.00 0.00 0.00 92 1017.3
20260906023155 23 163 3.2 4.8 0.00 0.00 0.00 92 1017.3
20260906022650 23 106 3.2 4.8 0.00 0.00 0.00 91 1017.3
20260906022146 23 84 1.6 1.6 0.00 0.00 0.00 91 1017.3
20260906021642 23 111 4.8 4.8 0.00 0.00 0.00 91 1017.2
20260906021140 23 134 1.6 3.2 0.00 0.00 0.00 90 1017.0
20260906020635 23 120 1.6 3.2 0.00 0.00 0.00 90 1017.2
20260906020130 23 81 3.2 4.8 0.00 0.00 0.00 90 1017.0
20260906015624 23 93 3.2 3.2 0.00 0.00 0.00 89 1017.1
20260906015122 23 44 3.2 4.8 0.00 0.00 0.00 89 1016.8
20260906014617 23 70 4.8 4.8 0.00 0.00 0.00 89 1016.7
20260906014114 23 79 1.6 1.6 0.00 0.00 0.00 89 1016.4
20260906013609 23 90 4.8 6.4 0.00 0.00 0.00 88 1016.4
20260906013104 23 76 3.2 4.8 0.00 0.00 0.00 88 1016.5
20260906012559 23 48 0.0 1.6 0.00 0.00 0.00 88 1016.3
20260906012058 23 116 1.6 4.8 0.00 0.00 0.00 87 1016.3
20260906011555 24 64 4.8 4.8 0.00 0.00 0.00 87 1016.6
20260906011049 24 41 3.2 3.2 0.00 0.00 0.00 86 1016.3
20260906010544 24 80 6.4 12.9 0.00 0.00 0.00 86 1016.4
20260906010040 24 130 6.4 9.7 0.00 0.00 0.00 86 1016.4
20260906005539 24 121 6.4 6.4 0.00 0.00 0.00 85 1016.2
20260906005038 24 158 4.8 6.4 0.00 0.00 0.00 85 1016.3
20260906004533 25 70 6.4 9.7 0.00 0.00 0.00 84 1016.5
20260906004028 25 48 3.2 3.2 0.00 0.00 0.00 84 1016.4
20260906003523 25 76 6.4 9.7 0.00 0.00 0.00 83 1016.2
20260906003019 25 81 6.4 11.3 0.00 0.00 0.00 82 1016.3
20260906002519 25 126 3.2 4.8 0.00 0.00 0.00 82 1016.3
20260906002013 25 122 1.6 3.2 0.00 0.00 0.00 81 1016.1
20260906001509 25 172 6.4 6.4 0.00 0.00 0.00 81 1016.0
20260906001003 25 114 3.2 6.4 0.00 0.00 0.00 80 1016.1
20260906000500 25 125 4.8 6.4 0.00 0.00 0.00 79 1016.0
20260905235959 25 103 6.4 9.7 0.00 0.00 0.00 78 1016.2
20260905235453 25 122 1.6 3.2 0.00 0.00 0.00 78 1016.0
20260905234948 26 192 3.2 3.2 0.00 0.00 0.00 77 1016.0
20260905234444 26 74 6.4 9.7 0.00 0.00 0.00 78 1016.1
20260905233938 26 64 4.8 6.4 0.00 0.00 0.00 79 1015.9
20260905233434 26 150 3.2 4.8 0.00 0.00 0.00 78 1016.0
20260905232932 26 56 6.4 9.7 0.00 0.00 0.00 78 1015.9
20260905232429 26 84 8.0 9.7 0.00 0.00 0.00 78 1016.0
20260905231923 26 156 3.2 6.4 0.00 0.00 0.00 78 1015.9
20260905231420 26 153 6.4 6.4 0.00 0.00 0.00 78 1015.9
20260905230911 26 190 3.2 4.8 0.00 0.00 0.00 78 1015.9
20260905230408 26 59 9.7 11.3 0.00 0.00 0.00 77 1015.8
20260905225901 27 178 1.6 1.6 0.00 0.00 0.00 77 1015.9
20260905225356 27 115 1.6 3.2 0.00 0.00 0.00 79 1015.7
20260905224852 27 109 4.8 4.8 0.00 0.00 0.00 79 1015.9
20260905224347 27 117 4.8 6.4 0.00 0.00 0.00 79 1015.7
20260905223842 27 139 6.4 6.4 0.00 0.00 0.00 79 1015.7
20260905223339 27 148 4.8 11.3 0.00 0.00 0.00 79 1015.4
20260905222834 27 166 3.2 4.8 0.00 0.00 0.00 79 1015.4
20260905222333 27 141 8.0 11.3 0.00 0.00 0.00 78 1015.7
20260905221829 27 102 8.0 11.3 0.00 0.00 0.00 78 1015.6
20260905221326 27 82 9.7 11.3 0.00 0.00 0.00 78 1015.3
20260905220821 28 98 6.4 9.7 0.00 0.00 0.00 77 1015.2
20260905220318 27 129 3.2 4.8 0.00 0.00 0.00 78 1015.3
20260905215816 27 131 6.4 9.7 0.00 0.00 0.00 78 1015.6
20260905215313 27 137 11.3 14.5 0.00 0.00 0.00 78 1015.3
20260905214809 27 130 3.2 4.8 0.00 0.00 0.00 78 1015.4
20260905214304 27 32 3.2 4.8 0.00 0.00 0.00 80 1015.4
20260905213759 27 192 6.4 11.3 0.00 0.00 0.00 80 1015.3
20260905213255 27 129 8.0 14.5 0.00 0.00 0.00 80 1015.4
20260905212750 27 96 8.0 11.3 0.00 0.00 0.00 80 1015.2
20260905212249 27 133 8.0 12.9 0.00 0.00 0.00 80 1015.0
20260905211748 27 116 9.7 16.1 0.00 0.00 0.00 80 1015.3
20260905211244 27 175 14.5 17.7 0.00 0.00 0.00 80 1015.4
20260905210741 27 156 14.5 14.5 0.00 0.00 0.00 80 1015.4
20260905210235 27 58 9.7 9.7 0.00 0.00 0.00 80 1015.3
20260905205734 27 46 9.7 12.9 0.00 0.00 0.00 81 1015.7
20260905205228 27 125 3.2 4.8 0.00 0.00 0.00 81 1015.4
20260905204728 27 103 14.5 17.7 0.00 0.00 0.00 80 1015.4
20260905204223 27 44 8.0 12.9 0.00 0.00 0.00 81 1015.7
20260905203723 27 127 11.3 14.5 0.00 0.00 0.00 82 1015.7
20260905203219 26 179 4.8 6.4 0.00 0.00 0.00 83 1015.7
20260905202714 26 152 6.4 9.7 0.00 0.00 0.00 83 1015.6
20260905202209 27 44 8.0 11.3 0.00 0.00 0.00 82 1015.4
20260905201705 26 168 3.2 6.4 0.00 0.00 0.00 82 1015.4
20260905201205 26 146 8.0 12.9 0.00 0.00 0.00 82 1015.7
20260905200700 26 99 8.0 11.3 0.00 0.00 0.00 82 1015.4
20260905200156 26 73 6.4 11.3 0.00 0.00 0.00 82 1015.4
20260905195654 26 84 4.8 9.7 0.00 0.00 0.00 82 1015.4
20260905195149 26 76 6.4 11.3 0.00 0.00 0.00 81 1015.4
20260905194644 26 86 9.7 12.9 0.00 0.00 0.00 80 1015.7
20260905194143 26 49 3.2 4.8 0.00 0.00 0.00 79 1015.8
20260905193638 26 81 14.5 17.7 0.00 0.00 0.00 78 1015.8
20260905193132 26 130 4.8 6.4 0.00 0.00 0.00 79 1015.9
20260905192628 26 133 4.8 9.7 0.00 0.00 0.00 79 1015.7
20260905192125 26 74 6.4 12.9 0.00 0.00 0.00 78 1015.6
20260905191624 26 69 9.7 12.9 0.00 0.00 0.00 78 1016.2
20260905191122 26 69 9.7 14.5 0.00 0.00 0.00 77 1016.1
20260905190620 26 59 4.8 6.4 0.00 0.00 0.00 79 1016.0
20260905190115 26 56 8.0 11.3 0.00 0.00 0.00 79 1016.0
20260905185614 26 94 9.7 12.9 0.00 0.00 0.00 78 1015.9
20260905185114 26 146 9.7 11.3 0.00 0.00 0.00 78 1015.7
20260905184608 26 60 9.7 11.3 0.00 0.00 0.00 79 1015.8
20260905184107 26 87 6.4 6.4 0.00 0.00 0.00 79 1015.8
20260905183606 26 76 9.7 14.5 0.00 0.00 0.00 79 1015.3
20260905183102 26 55 16.1 20.9 0.00 0.00 0.00 79 1015.3
20260905182601 26 184 6.4 12.9 0.00 0.00 0.00 79 1015.4
20260905182056 26 131 6.4 11.3 0.00 0.00 0.00 78 1015.4
20260905181556 26 32 14.5 16.1 0.00 0.00 0.00 77 1014.8